アトラス彗星

C/2017 M4 ( ATLAS )

English version
Home page
Updated on August 19, 2019

---------------------------------------------------------------------

・ プロフィール

発見日 2017年6月21日
発見光度 18.3等
発見者 Asteroid Terrestrial-impact Last Alert System (ATLAS) Team

・ 写真集

・ 軌道要素

Epoch 2019 Feb. 6.0 TT = JDT 2458520.5                                          
T 2019 Jan. 18.18709 TT                                 Williams                
q   3.2518028            (2000.0)            P               Q                  
z  -0.0007178      Peri.  167.62104     -0.34653881     -0.32822152             
 +/-0.0000003      Node    65.86769     -0.92164395     +0.29349814             
e   1.0023341      Incl.  105.65761     -0.17459463     -0.89784713             
H                                                                               
From 1539 observations 2017 June 16-2019 Aug. 5, mean residual 0".5.            

・ 星図

・ 光度変化

        m1 = 6.0 + 5 logΔ + 10.0 log r

---------------------------------------------------------------------

軌道要素はM.P.E.C. 2019-Q13に掲載されたものです。
星図はステラナビゲータ Ver.10 (アストロアーツ) で作成したものです。
光度グラフはComet for Windowsで作成したものです。

---------------------------------------------------------------------

Copyright(C) Seiichi Yoshida (comet@aerith.net). All rights reserved.